Regional Weather Roundup
Issued by NWS

Home | Current Version | Previous Version | Text Only | Print | Product List | Glossary On
Versions: 1 2 3 4 5 6 7 8 9 10 11 12 13 14 15 16 17 18 19 20 21 22 23 24 25 26 27
000
ASUS45 KPSR 280410
RWRAZ

ARIZONA HOURLY REGIONAL WEATHER ROUNDUP
NATIONAL WEATHER SERVICE PHOENIX AZ
900 PM MST WED JUL 27 2016

NOTE: FAIR INDICATES FEW OR NO CLOUDS BELOW 12,000 FEET WITH NO
SIGNIFICANT WEATHER AND/OR OBSTRUCTIONS TO VISIBILITY.

AZZ001>003-036-280500-
NORTHWEST ARIZONA

CITY           SKY/WX    TMP DP  RH WIND       PRES   REMARKS
BULLHEAD CITY  CLEAR    109  48  13 SW10      29.69R HX 106
KINGMAN        PTCLDY    85  58  39 N5        29.97R
$$

AZZ004>008-015-016-018-280500-
NORTH CENTRAL ARIZONA

CITY           SKY/WX    TMP DP  RH WIND       PRES   REMARKS
GRAND CANYON   CLEAR     71  42  35 CALM      30.26R
WILLIAMS       PTCLDY    72  50  46 CALM      30.35R
PRESCOTT       MOCLDY    79  50  36 SW3       30.12R
FLAGSTAFF      PTCLDY    75  45  34 VRB5      30.28R
PAYSON         PTCLDY    84  46  26 NW5       30.13R
PAGE           CLEAR     94  32  11 S3        29.99R
$$

AZZ009>014-017-280500-
NORTHEAST ARIZONA

CITY           SKY/WX    TMP DP  RH WIND       PRES   REMARKS
WINSLOW        PTCLDY    79  36  21 SW8       30.07R
SAINT JOHNS    CLEAR     74  33  22 CALM      30.13R
WINDOW ROCK    CLEAR     71  41  33 CALM      30.25R
SHOW LOW       PTCLDY    75  45  33 S13       30.24R
$$

AZZ023-280500-
GREATER PHOENIX AREA

CITY           SKY/WX    TMP DP  RH WIND       PRES   REMARKS
PHOENIX        MOCLDY   107  55  18 W12       29.70R HX 106
BUCKEYE        CLEAR    104  55  20 SW12      29.72R HX 103
LUKE AFB       PTCLDY   103  55  20 NW5       29.70R HX 101
DEER VALLEY    PTCLDY   102  54  20 W6        29.73R HX 100
SCOTTSDALE     PTCLDY   104  54  19 CALM      29.75R HX 102
CHANDLER       PTCLDY   104  54  18 SW7       29.73R HX 102
$$

AZZ027-028-280500-
SOUTHWEST MARICOPA COUNTY AND PINAL COUNTY

CITY           SKY/WX    TMP DP  RH WIND       PRES   REMARKS
CASA GRANDE    PTCLDY   102  57  22 E9        29.81R THUNDER HX 101
GILA BEND      PTCLDY   105  55  19 SW12      29.72R HX 103
$$

AZZ503-504-507>509-280500-
SOUTHEAST ARIZONA

CITY           SKY/WX    TMP DP  RH WIND       PRES   REMARKS
TUCSON         CLOUDY    84  61  45 E13       30.01R
DAVIS-MONTHAN  LGT RAIN  86  61  42 E22G33    30.01R
NOGALES          N/A    N/A N/A N/A MISG      30.09S THUNDER
SIERRA VISTA   LGT RAIN  73  62  69 W10       30.13F
DOUGLAS        CLOUDY    71  66  84 E3        30.12R
SAFFORD        CLOUDY    85  56  37 NE14      29.95R
$$

AZZ020-021-025-026-031-280500-
SOUTHWEST ARIZONA

CITY           SKY/WX    TMP DP  RH WIND       PRES   REMARKS
YUMA           MOCLDY   100  66  32 S12       29.70R HX 104
$$

CAZ031-033-041-043-047-048-061-280500-
SOUTHERN CALIFORNIA

CITY           SKY/WX    TMP DP  RH WIND       PRES   REMARKS
DOWNTOWN L.A.  CLEAR     73  65  75 CALM      29.87S
L.A. AIRPORT   PTCLDY    71  64  78 SW9       29.88S
SAN DIEGO      PTCLDY    72  66  81 W5        29.91R
BURBANK        CLEAR     80  60  50 SE9       29.88R
ONTARIO        PTCLDY    84  47  27 SW9       29.90R
RIVERSIDE      CLEAR     85  45  24 W7        29.89S
PALM SPRINGS   CLEAR    106  50  15 NW8G24    29.72R HX 103
EL CENTRO NAS  MOCLDY   103  50  17 W18       29.69R HX 100
IMPERIAL       PTCLDY   102  58  23 W13       29.67R HX 102
BLYTHE         CLEAR    109  53  15 SW12      29.69R HX 107
NEEDLES        MOCLDY   109  55  17 S13       29.71F HX 108
$$

NVZ020-UTZ003-280500-
SOUTHERN NEVADA-UTAH

CITY           SKY/WX    TMP DP  RH WIND       PRES   REMARKS
LAS VEGAS      PTCLDY   104  43  12 SW7       29.78R
SALT LAKE CITY CLEAR     89  30  12 S8        30.01S
$$

NMZ009-TXZ055-280500-
NEW MEXICO-WEST TEXAS

CITY           SKY/WX    TMP DP  RH WIND       PRES   REMARKS
ALBUQUERQUE    CLOUDY    82  41  23 E8        30.16R
EL PASO        PTCLDY    82  61  48 CALM      30.05R
$$


........................KEY........................
SKY/WX - SKY CONDITION/WEATHER
TMP    - TEMPERATURE IN FAHRENHEIT
DP     - DEW POINT IN FAHRENHEIT
RH     - RELATIVE HUMIDITY IN PERCENT
WIND   - DIRECTION AND SPEED IN MILES PER HOUR (MPH)
VRB    - VARIABLE WIND DIRECTION
PRES   - MEAN SEA LEVEL PRESSURE IN INCHES OF MERCURY
         F - FALLING PRESSURE   R - RISING PRESSURE
         S - STEADY PRESSURE
VSB    - VISIBILITY IN MILES
HX     - HEAT INDEX IN FAHRENHEIT
WCI    - WIND CHILL INDEX IN FAHRENHEIT
TC     - TEMPERATURE IN CELSIUS WHICH IS ALSO KNOWN AS
         TEMPERATURE IN CENTIGRADE
AFB    - AIR FORCE BASE
         LUKE AFB IS LUKE AIR FORCE BASE
         DAVIS-MONTHAN IS DAVIS-MONTHAN AIR FORCE BASE
NAS    - NAVAL AIR STATION
         EL CENTRO NAS IS EL CENTRO NAVAL AIR STATION
N/A    - NOT AVAILABLE





USA.gov is the U.S. government's official web portal to all federal, state and local government web resources and services.